sat.trackr.live / text

‹ back to catalog

STARLINK-35937

NORAD 66517 · 2025-265B

PAYLOAD ACTIVE UNKNOWN

§ Identity

Operator
Country
US
Launch date
2025-11-19
Launch site
AFETR
Launch vehicle
Mass (kg)
RCS (m²)

Purposes: comms

External: N2YO · Heavens-Above · Gunter

§ Orbital elements

Epoch: 2026-05-24T21:32:36.894336Z

Period
94.27 min
Inclination
43.0004°
Eccentricity
0.0002925
Mean motion
15.27577298 rev/d
Perigee alt
481.1 km
Apogee alt
485.1 km
Semi-major
6,861.2 km
B*
3.7240e-4
RAAN
207.9785°
Arg perigee
282.6290°
Mean anomaly
77.4234°
Rev number
2,876

§ Raw data

STARLINK-359371 66517U 25265B   26144.89764924  .00009999  00000+0  37240-3 0  99952 66517  43.0004 207.9785 0002925 282.6290  77.4234 15.27577298 28766

JSON: /api/v1/satellites/66517 · /tle

For live sub-satellite position, see the globe view (requires WebGL).

§ Visibility from observer

Set your observer location to see the next 7 days of passes ≥ 10°. The values pass through the URL so the page stays shareable.

No JS? Fill the form by hand. The geolocation button needs JavaScript.